Weather in Basra

Iraq     30°37′13″N   47°44′01″E
temp.,
°C
wind,
m/s
gust,
m/s
humid.,
%
clouds,
%
prec.,
mm/h
press.,
hPa
HPBL,
m
10 april, sat
sat1000:00+26se610290 0.0 1005221
03:00+24se814425 0.0 1003299
06:00+23se7125245 0.0 1005310
09:00+29sse9113198 0.1 1006539
12:00+32sse111121100 0.1 1005636
15:00+31se1215236 0.3 1003632
18:00+30sse91230100 0.6 1006385
21:00+28ese916215 0.9 1007423
11 april, sun
sun1100:00+26sse8152694 0.0 1007386
03:00+24sw2446100 0.0 1008150
06:00+23sse4550100 0.0 1010199
09:00+26n014492 0.0 1011206
12:00+33s8102321 0.0 10111777
15:00+33se76203 0.1 10102061
18:00+31ssw44240 0.1 1011479
21:00+29wsw45270 0.3 1013215
12 april, mon
mon1200:00+26nw812240 0.0 1013380
03:00+23nnw812260 0.0 1013343
06:00+22nnw611227 0.0 1014290
09:00+28nnw67190 0.0 1014634
12:00+33nnw65153 0.0 10131438
15:00+34nnw54120 0.0 10102089
18:00+33nnw55130 0.0 1010767
21:00+29nnw610102 0.0 1011241
13 april, tue
tue1300:00+26nnw6111055 0.0 1012255
03:00+24nne510121 0.0 1011215
06:00+24nne58130 0.0 1011143
09:00+30nnw338100 0.0 1012594
12:00+33nne119100 0.0 10111059
15:00+35ssw2210100 0.0 10091958
18:00+33s5512100 0.0 1010321
21:00+30wnw46163 0.0 1012153
14 april, wed
wed1400:00+27nw58180 0.0 1012283
03:00+24nnw713170 0.0 1013414
06:00+22nnw714190 0.0 1014434
09:00+27nnw910130 0.0 1015820
12:00+32nnw9990 0.0 10141575
15:00+33nw9990 0.0 10122044
18:00+30nw91080 0.0 1012940
21:00+26nw61011100 0.0 1014449